FW8418 Weather Reports


time (UTC)temp
F
wind
direction
speed
knots
gust
knots
rain 1hr
in
rain 24hr
in
rain mn
in
humidity
%
barometer
mb
20260503184547 60 250 8.7 22.6 0.00 0.00 0.00 42 1011.0
20260503183046 61 182 7.8 26.1 0.00 0.00 0.00 43 1011.1
20260503181617 61 205 7.8 26.1 0.00 0.00 0.00 41 1011.4
20260503180120 59 258 7.8 20.9 0.00 0.00 0.00 43 1011.7
20260503174557 59 229 9.6 22.6 0.00 0.00 0.00 43 1011.9
20260503173053 59 261 4.3 22.6 0.00 0.00 0.00 45 1012.1
20260503171548 59 187 5.2 13.9 0.00 0.00 0.00 47 1012.2
20260503120106 44 279 3.5 9.6 0.00 0.00 0.00 61 1013.8
20260503100104 38 209 2.6 7.8 0.00 0.00 0.00 63 1013.8
20260503081550 37 188 1.7 5.2 0.00 0.00 0.00 63 1014.6
20260503071554 38 183 1.7 5.2 0.00 0.00 0.00 59 1014.7
20260503060111 40 0 1.7 6.1 0.00 0.00 0.00 54 1015.4
20260503054547 40 220 0.9 6.1 0.00 0.00 0.00 54 1015.6
20260503053046 40 232 1.7 6.1 0.00 0.00 0.00 54 1015.7
20260503051548 40 240 2.6 8.7 0.00 0.00 0.00 55 1015.7
20260503050049 40 229 2.6 7.0 0.00 0.00 0.00 56 1015.8
20260503044618 40 192 1.7 7.0 0.00 0.00 0.00 57 1015.8
20260503043046 40 257 2.6 7.0 0.00 0.00 0.00 57 1015.8
20260503041553 40 253 1.7 6.1 0.00 0.00 0.00 57 1015.9
20260503040058 41 222 2.6 8.7 0.00 0.00 0.00 56 1016.0
20260503034556 41 244 2.6 7.0 0.00 0.00 0.00 57 1016.1
20260503033049 41 243 2.6 7.0 0.00 0.00 0.00 57 1016.0
20260503031549 41 251 1.7 7.0 0.00 0.00 0.00 58 1016.2
20260503030045 41 211 1.7 7.0 0.00 0.00 0.00 59 1016.2
20260503024557 41 229 1.7 4.3 0.00 0.00 0.00 58 1016.3
20260503023050 42 219 1.7 7.8 0.00 0.00 0.00 57 1016.3
20260503021550 41 245 0.9 6.1 0.00 0.00 0.00 57 1016.3
20260503020049 42 219 0.9 6.1 0.00 0.00 0.00 57 1016.1
20260503014554 42 228 1.7 4.3 0.00 0.00 0.00 57 1016.2
20260503013045 42 234 0.9 2.6 0.00 0.00 0.00 57 1016.0
20260503011552 43 234 0.9 2.6 0.00 0.00 0.00 54 1016.0
20260503010052 44 0 0.9 3.5 0.00 0.00 0.00 52 1016.0
20260503004553 45 233 0.0 3.5 0.00 0.00 0.00 51 1015.9
20260503003053 46 263 0.9 3.5 0.00 0.00 0.00 50 1015.9
20260503001551 46 263 0.9 7.0 0.00 0.00 0.00 50 1015.8
20260503000050 47 278 1.7 9.6 0.00 0.00 0.00 49 1015.8
20260502234601 48 267 3.5 8.7 0.00 0.00 0.00 49 1015.7
20260502233050 47 296 1.7 7.0 0.00 0.00 0.00 51 1015.9
20260502231549 46 265 2.6 7.8 0.00 0.00 0.00 51 1015.9
20260502230047 46 315 3.5 7.8 0.00 0.00 0.00 51 1016.1
20260502224545 46 302 3.5 7.8 0.00 0.00 0.00 51 1016.0
20260502223056 46 298 2.6 9.6 0.00 0.00 0.00 50 1016.0
20260502221548 46 289 3.5 10.4 0.00 0.00 0.00 50 1016.1
20260502220059 46 298 4.3 10.4 0.00 0.00 0.00 50 1015.9
20260502214605 46 311 2.6 7.8 0.00 0.00 0.00 50 1016.1
20260502213104 46 309 5.2 12.2 0.00 0.00 0.00 48 1016.1
20260502211557 46 300 4.3 10.4 0.00 0.00 0.00 50 1016.1
20260502210048 47 305 7.0 13.0 0.00 0.00 0.00 47 1016.2
20260502204543 47 303 5.2 10.4 0.00 0.00 0.00 52 1016.2
20260502203109 46 314 4.3 11.3 0.00 0.00 0.00 50 1016.3
20260502201547 46 296 6.1 12.2 0.00 0.00 0.00 49 1016.5
20260502200054 46 253 4.3 12.2 0.00 0.00 0.00 49 1016.6
20260502194544 46 318 5.2 17.4 0.00 0.00 0.00 47 1016.8
20260502193047 46 313 5.2 12.2 0.00 0.00 0.00 49 1016.8
20260502191547 47 290 4.3 13.0 0.00 0.00 0.00 47 1017.0
20260502190049 46 312 9.6 15.6 0.00 0.00 0.00 47 1017.1